Lapse_Rate
7.0 7.4 7.7 8.1 8.2 8.5 9.4 9.6 9.7 9.7 9.5 9.7 9.0 8.1 8.2 8.3 8.3 7.6 7.4 7.2 7.3 7.3 7.3 7.3 7.2 7.0 6.7 6.6 6.4 7.5 7.5 7.3 7.7 7.6 7.7 7.7 7.7 8.0 8.1 8.1 8.3 8.4 8.2 8.5
7.6 7.4 7.9 8.3 8.6 8.7 8.8 9.4 9.2 9.4 9.5 9.6 9.6 8.2 7.7 7.8 8.0 8.2 7.6 7.4 7.0 7.2 7.1 7.0 6.9 6.9 6.7 6.6 6.3 6.7 7.2 7.4 7.2 7.6 7.6 7.5 7.5 7.7 7.7 7.8 7.8 8.1 8.1 8.3
8.1 8.7 8.8 8.7 9.4 9.4 8.4 8.3 8.3 8.6 9.1 9.3 9.1 8.1 7.7 7.7 7.8 7.9 7.7 7.5 7.4 7.2 7.2 7.0 6.9 6.8 6.6 6.3 6.0 6.1 6.8 6.9 7.0 7.2 7.2 7.4 7.4 7.3 7.3 7.6 7.6 7.8 8.2 8.4
8.1 9.1 9.6 8.8 8.5 8.7 8.4 8.4 8.5 8.6 9.3 9.3 9.5 8.3 8.5 8.4 8.1 8.2 8.0 7.7 7.5 7.6 7.4 7.4 7.1 6.9 6.5 6.1 6.5 5.9 5.8 6.5 7.2 7.4 7.4 7.3 7.1 7.3 7.4 7.4 7.3 7.3 7.8 7.8
8.4 9.0 9.2 8.9 8.7 8.5 8.5 8.8 9.3 9.5 8.7 8.3 8.4 9.0 8.5 9.4 9.6 9.4 8.5 8.1 7.7 7.7 7.7 7.7 7.3 6.9 6.4 5.8 5.7 6.1 6.3 6.0 6.5 7.1 7.2 7.3 7.2 7.0 7.2 7.3 7.4 6.9 6.8 7.4
7.8 8.9 9.3 9.0 8.7 9.1 8.5 8.9 9.2 9.2 8.5 8.3 8.4 8.5 8.4 8.8 9.6 9.6 9.5 9.5 8.3 7.9 7.9 7.9 7.3 6.6 6.1 5.8 5.9 5.8 6.0 6.0 6.5 7.0 7.2 7.1 7.1 7.3 7.3 7.4 7.5 7.3 7.1 6.6
7.8 8.2 8.3 8.3 8.2 8.7 8.4 8.7 9.0 9.0 8.9 8.4 8.6 8.8 8.6 9.1 9.3 9.7 9.6 9.4 8.9 7.5 7.2 6.8 6.5 6.1 6.1 5.9 5.7 5.3 5.2 5.6 6.3 6.8 6.9 7.0 7.1 7.2 7.2 7.1 7.0 7.0 7.2 7.1
7.4 8.0 8.7 8.5 8.4 8.4 8.5 8.9 8.9 9.1 9.4 9.7 9.5 9.6 9.2 9.2 9.2 9.4 9.2 8.8 8.2 7.7 7.0 6.7 6.5 6.2 6.0 5.6 5.4 5.1 5.1 5.1 5.4 6.1 6.3 6.5 6.8 6.8 7.0 7.1 7.3 7.0 7.0 6.8
8.2 7.9 8.3 8.0 8.3 8.7 8.3 8.3 8.3 8.2 8.2 8.5 8.3 8.6 9.0 8.9 8.9 8.8 8.8 8.6 8.4 7.6 6.8 6.5 7.0 6.5 5.8 5.7 5.5 5.2 5.0 4.8 4.7 4.6 5.4 6.1 6.4 6.4 6.6 6.8 6.9 7.1 7.2 7.0
7.8 7.7 7.8 7.9 7.9 8.2 8.5 8.6 8.3 8.0 8.0 7.7 8.5 8.7 8.9 8.6 8.2 8.1 8.3 8.3 7.7 7.2 6.3 6.2 6.2 6.4 6.3 6.2 5.8 5.4 5.1 5.0 4.7 4.4 4.6 4.8 5.1 6.1 6.4 6.7 6.8 6.9 6.9 7.1
7.3 7.1 7.0 7.3 7.6 7.8 8.4 8.3 8.3 8.0 8.0 7.1 7.7 8.5 7.5 7.7 7.9 7.7 7.3 7.5 7.2 6.9 6.6 6.3 5.6 5.8 5.9 6.2 6.0 5.4 4.9 5.1 5.2 5.1 5.1 5.0 4.3 5.8 6.0 6.0 6.2 6.6 6.8 7.0
7.0 6.8 7.3 7.4 7.8 7.9 7.5 7.8 8.1 7.5 7.3 7.7 7.7 7.5 7.7 7.3 7.5 7.3 6.8 6.6 6.3 6.2 6.3 6.2 6.1 5.9 5.8 5.7 5.6 5.5 5.0 4.9 5.1 5.3 5.1 5.2 5.1 5.0 6.0 5.9 6.1 6.2 6.4 6.6
6.6 6.8 7.0 7.6 7.9 7.9 8.0 7.9 8.1 7.9 7.2 7.1 7.2 7.0 7.6 7.1 7.3 6.4 6.8 6.3 6.5 6.6 6.4 6.2 6.1 5.6 6.3 6.2 5.8 5.7 5.6 5.3 4.9 4.5 4.5 4.2 4.6 4.6 5.8 5.9 6.0 6.4 6.2 6.4
6.6 6.5 6.9 7.2 7.7 7.4 6.2 6.0 6.1 6.2 6.3 6.3 7.0 7.4 7.8 6.7 6.4 6.9 6.1 6.2 6.3 6.2 6.3 6.1 5.7 5.6 5.8 5.7 5.4 5.6 5.5 5.6 5.2 5.0 5.2 5.1 5.5 5.4 6.1 6.4 6.4 6.6 6.8 6.7
6.0 6.1 6.5 6.7 6.8 7.0 7.1 6.8 6.7 6.8 6.6 6.6 6.9 7.4 7.3 7.2 6.4 6.3 6.2 6.0 6.2 6.2 6.1 6.0 6.3 6.0 5.5 5.5 5.5 5.7 5.8 5.7 6.2 6.2 6.4 6.5 6.5 6.5 6.2 6.8 6.6 6.5 6.8 6.8
5.7 5.7 6.1 6.2 6.6 6.8 7.0 7.2 7.2 7.3 7.5 7.5 7.6 7.3 7.5 7.3 7.0 6.6 6.6 6.8 6.6 5.9 6.1 6.2 6.1 6.1 6.1 6.1 5.8 6.1 5.9 5.6 5.7 5.9 6.3 6.5 6.6 6.7 6.6 6.2 7.0 6.9 7.2 7.4
5.7 5.7 5.8 6.1 6.8 6.6 6.9 7.4 7.6 7.6 7.6 7.5 7.3 7.4 7.3 6.3 6.1 6.3 6.2 6.3 6.7 6.8 6.4 6.3 6.4 6.5 6.2 6.1 6.1 5.6 5.6 5.7 5.6 5.7 6.4 6.3 6.0 6.3 6.6 6.6 6.2 7.1 7.1 7.1
5.7 5.6 5.8 6.1 6.8 7.0 7.5 7.5 7.5 7.4 7.6 7.5 7.2 7.6 6.1 6.7 6.2 6.7 6.6 6.9 6.7 6.1 6.2 6.5 6.4 6.4 6.4 5.9 5.5 5.5 5.7 6.0 5.9 5.9 5.3 5.3 5.6 5.4 5.3 5.7 6.1 5.5 6.7 7.0
5.6 5.5 5.6 6.3 7.3 7.2 7.6 7.5 7.1 7.3 7.3 7.2 6.8 6.7 6.4 6.6 6.3 6.9 7.5 6.5 6.1 6.1 6.4 6.3 6.3 6.0 5.7 5.5 5.4 5.4 5.3 5.4 5.8 5.5 5.3 5.3 4.9 5.0 5.2 5.5 5.6 5.4 5.5 6.8
5.8 5.6 5.7 6.1 6.5 7.4 6.9 7.0 6.8 7.1 7.6 6.7 6.8 6.7 6.6 6.5 6.7 7.2 7.2 7.0 6.9 6.4 6.2 6.1 6.4 6.2 6.1 5.6 5.6 5.7 5.5 5.5 5.2 5.1 5.2 4.8 4.8 4.8 4.4 4.8 5.2 5.4 5.2 5.7
6.4 6.1 6.0 6.2 6.3 6.8 6.8 6.6 6.8 7.2 6.9 6.6 6.6 6.4 6.4 6.4 6.3 6.3 6.6 6.7 6.6 6.1 5.7 6.0 5.7 5.3 4.9 4.9 4.9 5.3 5.4 5.5 5.3 4.8 4.5 4.6 4.6 5.0 4.8 4.3 4.6 5.1 5.2 5.2
6.6 6.4 6.6 6.5 6.8 7.0 6.8 6.6 6.8 6.6 6.5 6.4 6.2 6.1 5.9 5.9 5.9 5.8 5.5 5.3 5.3 5.4 6.0 6.1 5.3 4.4 4.4 4.4 4.6 5.1 4.9 4.9 4.9 4.7 4.5 4.4 4.6 4.3 4.8 4.5 4.2 4.7 4.8 5.0
6.6 6.5 6.6 6.4 6.8 6.5 6.7 6.7 6.7 6.6 6.6 6.5 6.3 6.0 5.7 5.5 5.3 5.1 5.1 5.1 5.3 5.8 5.5 4.6 4.0 3.7 4.2 4.6 4.1 3.9 4.1 4.3 4.5 4.3 4.3 4.1 4.2 4.6 4.7 4.9 4.9 4.6 4.3 4.4
6.7 6.6 6.6 6.5 6.7 6.8 6.7 6.6 6.6 6.2 6.2 6.1 6.1 5.8 5.4 4.7 5.1 5.0 5.2 5.6 5.4 4.6 4.1 4.2 4.5 4.2 3.8 3.9 4.0 3.9 4.3 4.4 4.6 4.6 4.7 4.8 4.8 4.9 4.9 4.9 5.1 5.1 4.8 4.8
6.8 6.7 6.9 6.8 7.0 6.6 6.8 6.7 6.5 6.5 6.2 5.7 5.7 5.5 5.4 5.3 5.1 5.1 4.7 4.2 4.2 4.4 4.7 4.2 4.1 4.0 4.3 4.8 4.8 4.7 4.7 4.5 4.5 4.4 4.4 4.4 4.4 4.5 4.7 4.7 4.6 4.6 5.1 5.0
6.6 6.7 6.8 6.9 6.8 6.6 6.5 6.5 6.6 5.9 5.7 4.8 4.8 5.8 5.6 5.2 4.0 3.8 4.3 4.6 4.3 4.1 4.2 4.2 4.5 4.8 5.0 5.0 5.0 5.1 4.8 4.6 4.7 4.8 4.4 4.3 4.4 4.5 4.6 4.7 4.9 5.0 5.3 5.4
Wind_Speed
13 11 15 18 18 18 20 18 15 15 18 18 16 15 14 15 13 13 14 13 12 12 9 6 4 5 7 5 2 4 4 2 5 5 8 9 9 9 9 10 11 9 11 14
13 15 16 18 18 19 20 20 14 16 14 8 9 12 14 15 18 15 15 13 13 12 11 9 5 6 6 6 5 3 3 4 4 4 4 6 9 10 10 10 12 9 12 14
16 19 20 16 15 15 11 14 13 18 16 15 16 17 16 20 18 17 15 14 14 15 12 9 11 6 7 4 3 5 6 5 3 6 5 5 6 6 7 9 10 13 13 13
15 19 12 9 13 15 15 16 17 17 15 13 12 14 17 21 20 19 16 13 12 14 8 7 5 4 5 2 5 1 3 4 3 5 6 8 6 8 9 9 9 11 17 17
15 16 13 16 16 15 16 16 16 16 13 16 19 13 16 16 14 16 17 17 14 11 13 13 12 9 5 5 3 2 3 1 2 2 4 6 8 8 8 9 10 6 12 18
17 20 13 9 13 14 13 15 15 13 11 14 18 17 17 16 18 18 16 17 12 11 10 6 9 8 4 4 6 5 5 3 2 3 5 6 7 9 9 10 9 8 10 11
16 20 14 12 11 13 15 13 10 12 13 14 20 16 15 16 19 19 11 10 7 10 9 6 7 5 5 4 3 6 7 7 7 5 5 6 6 7 9 11 9 10 11 10
12 13 15 15 16 13 13 12 12 16 14 15 14 16 4 12 6 7 7 14 12 8 7 7 6 5 5 4 4 2 4 6 7 8 7 6 7 6 7 8 9 10 11 13
14 20 15 15 18 15 18 17 16 16 18 16 17 23 12 8 12 11 12 10 9 10 6 2 2 2 3 5 4 4 5 7 5 7 6 5 7 8 8 9 9 9 10 12
8 10 8 13 11 18 16 9 9 9 17 21 15 18 10 10 5 12 8 1 9 9 7 2 5 7 8 8 4 4 5 8 3 6 4 6 3 7 8 9 11 11 11 13
9 7 11 16 15 15 13 13 12 12 13 4 6 6 7 9 12 7 2 3 6 2 4 5 8 8 9 12 9 3 5 8 9 5 8 10 8 7 9 8 9 9 10 11
5 5 10 17 18 16 18 20 17 9 14 12 13 15 12 1 10 12 11 7 5 9 7 8 8 7 10 10 10 7 4 4 7 9 7 9 4 4 5 6 7 8 10 12
3 3 8 11 15 22 14 13 14 12 17 20 13 9 10 12 14 11 13 13 12 11 9 9 8 7 10 9 9 10 10 8 7 5 7 8 6 8 5 7 7 7 9 12
2 7 14 12 16 10 8 11 16 8 5 10 17 20 15 6 6 8 12 16 15 12 10 7 8 7 9 9 10 10 10 10 9 8 10 10 9 8 8 8 11 9 5 5
3 8 15 19 23 23 24 20 18 18 15 11 14 17 14 12 11 17 18 15 13 10 8 7 10 11 10 9 7 9 10 9 11 10 10 10 10 12 9 9 10 12 10 7
3 5 13 18 17 21 23 22 20 21 21 23 22 24 18 14 11 6 4 7 9 7 11 13 15 13 8 7 7 8 8 9 11 12 12 11 12 13 13 10 8 9 10 9
2 3 5 10 15 15 15 17 18 18 20 15 17 17 11 5 2 5 8 11 13 12 11 14 11 10 9 9 6 7 9 9 11 12 14 15 14 15 14 14 9 9 10 11
5 6 3 5 10 8 6 8 7 6 6 6 7 9 6 7 3 8 8 13 13 11 12 13 13 13 13 13 11 9 10 12 13 13 14 15 15 15 16 13 14 9 10 11
11 7 4 3 7 13 14 4 3 5 7 8 7 8 11 13 12 10 9 12 12 13 13 12 13 14 15 15 13 12 10 11 12 13 15 15 15 15 14 19 12 10 10 11
17 14 7 3 4 4 3 6 6 8 7 9 10 7 8 13 11 10 18 16 16 16 13 13 16 17 17 15 11 10 12 12 15 14 14 14 13 15 16 15 14 13 7 11
3 5 12 9 6 8 3 2 2 7 3 8 10 11 12 11 11 15 16 17 16 16 16 17 17 16 16 14 12 12 12 13 13 14 14 15 15 15 16 13 11 13 13 11
6 3 4 6 5 7 9 4 3 2 4 8 9 11 13 15 17 17 18 17 17 17 19 20 18 16 16 12 11 13 14 13 13 13 15 17 14 12 13 16 12 12 11 11
3 2 1 2 3 0 4 11 2 4 7 8 10 12 13 16 18 20 17 18 17 19 19 17 16 15 14 15 15 17 17 16 16 16 14 14 15 14 13 13 14 11 13 10
2 7 4 8 2 2 2 11 8 13 14 15 14 15 17 18 20 21 18 17 17 17 16 16 19 19 19 18 19 18 17 17 18 15 15 13 15 15 14 12 12 12 13 13
8 9 10 13 6 5 7 8 12 11 11 14 17 17 18 19 20 20 18 17 17 17 18 18 20 20 20 19 17 16 15 15 15 15 15 14 11 14 13 13 12 12 13 12
3 4 3 4 7 6 12 15 14 15 15 16 16 19 18 19 19 20 17 17 17 19 20 19 19 20 19 19 18 17 16 15 15 14 12 11 10 10 9 10 10 16 20 16
Wind_Direction
205 219 211 220 227 240 259 242 278 225 243 199 217 249 252 241 214 215 226 217 253 244 231 220 204 149 98 95 48 325 264 237 201 185 187 203 223 218 226 233 219 220 188 197
232 227 238 228 238 228 250 272 270 287 298 276 236 240 249 256 265 227 224 216 219 233 236 228 211 159 154 154 145 168 273 280 217 219 228 223 211 226 222 220 230 222 207 199
231 231 209 248 245 248 262 274 261 261 272 256 253 256 264 261 246 245 236 232 212 228 220 199 220 205 173 151 156 190 187 177 254 271 251 241 259 266 234 219 214 214 215 213
253 245 263 226 257 270 240 245 247 267 268 261 236 254 243 230 230 233 235 218 230 230 226 241 218 234 150 173 238 299 133 149 214 240 272 275 237 242 248 250 226 210 212 213
262 243 253 262 250 247 250 253 259 241 246 266 262 268 271 286 268 223 218 213 209 225 224 213 196 190 121 50 358 213 256 132 146 255 311 301 286 270 258 250 248 239 214 208
276 282 311 294 274 235 266 253 263 271 263 257 253 256 260 259 249 228 226 197 191 219 211 134 83 71 39 9 9 36 38 2 15 330 265 259 270 281 285 289 302 273 254 216
264 267 252 264 271 273 226 241 254 246 239 249 244 243 243 251 247 243 174 170 144 95 77 66 71 57 39 34 6 3 22 356 339 322 305 285 274 262 263 280 278 274 277 272
267 267 253 218 237 253 263 228 241 251 258 267 267 249 302 350 1 110 96 105 106 107 87 62 44 7 342 331 24 306 308 306 336 308 302 317 303 287 284 256 250 261 267 273
283 256 259 269 283 238 247 263 280 293 297 291 285 281 254 258 225 212 185 161 148 126 115 119 261 313 314 307 311 304 303 268 229 285 273 269 285 280 275 280 290 287 284 269
276 309 304 291 283 271 264 253 239 261 265 267 265 268 282 26 54 345 343 240 128 140 147 213 332 341 329 306 283 277 335 339 304 271 303 296 322 325 321 338 300 265 272 277
285 269 272 297 284 263 266 252 250 241 258 254 281 280 21 3 13 9 7 312 83 20 287 339 339 318 301 295 300 274 18 1 338 33 4 348 10 358 344 323 330 333 322 286
20 312 278 278 279 262 249 265 256 245 253 255 264 271 57 358 311 10 356 292 330 308 310 312 292 306 343 349 348 330 12 345 344 335 344 323 333 331 326 316 323 333 331 330
30 238 287 277 249 234 251 305 287 265 244 243 243 246 108 36 340 351 329 308 305 323 308 291 306 322 315 327 335 322 336 315 303 322 319 311 317 316 327 317 336 347 7 345
353 265 258 262 282 295 249 283 295 276 250 267 261 281 278 66 275 306 291 287 285 276 286 320 332 303 304 301 297 307 311 312 313 317 321 309 306 275 274 288 308 310 321 344
258 267 274 272 273 273 277 268 251 249 253 249 269 272 267 271 196 236 234 238 257 283 307 313 294 288 282 253 246 261 273 282 287 290 292 290 295 292 255 259 270 282 296 306
166 276 284 280 269 259 261 263 266 265 259 259 268 272 288 283 280 309 305 278 270 275 270 273 260 255 295 300 258 261 272 282 290 291 283 279 292 284 285 261 241 258 277 284
214 290 295 270 264 266 258 253 256 259 256 254 263 276 274 248 62 275 285 285 289 292 288 292 306 337 322 311 320 301 299 315 296 279 274 281 276 275 273 279 247 234 248 262
212 227 249 273 290 259 281 315 259 285 299 317 276 310 104 269 234 250 297 284 285 322 339 332 321 311 300 288 281 298 300 297 298 303 304 305 300 286 280 272 282 237 221 233
198 230 267 261 273 288 280 205 33 37 311 22 31 34 340 333 322 291 26 4 337 323 315 313 313 309 308 304 291 278 274 278 276 274 279 279 293 299 311 314 259 272 242 216
196 216 235 289 280 282 92 68 3 324 261 31 1 350 322 327 308 303 350 336 323 316 313 314 305 297 286 285 299 287 273 265 267 272 275 284 287 289 290 287 321 304 278 287
196 212 220 237 243 260 126 285 306 243 22 340 319 326 327 318 316 319 317 312 314 308 312 313 300 285 282 279 277 284 289 282 273 276 281 275 269 278 281 281 280 285 303 279
194 222 215 226 238 248 360 305 335 8 310 303 326 330 321 316 310 308 309 312 309 313 312 305 294 300 306 314 325 306 299 302 298 282 280 277 276 267 270 272 273 273 270 277
276 251 305 265 307 299 305 299 302 301 288 333 328 328 319 315 313 313 307 309 317 312 295 293 311 330 328 326 315 302 300 298 288 277 266 272 274 265 256 258 267 264 252 257
283 213 227 232 161 276 200 278 354 341 357 354 344 339 330 318 314 312 318 314 299 300 322 340 333 322 313 306 302 299 299 297 285 275 269 263 260 258 252 256 252 249 256 255
291 265 307 291 328 309 90 339 353 336 333 337 334 328 324 318 314 314 303 314 325 332 334 328 316 306 302 300 299 296 292 288 287 283 278 267 262 260 255 250 249 248 247 245
357 294 341 322 357 335 332 351 336 341 338 331 339 333 321 313 313 330 327 332 338 328 316 309 308 302 301 302 301 294 287 279 277 272 272 269 268 267 267 268 262 243 243 244